Location: Colebrook
(42.0017°N, 73.0973°W)
Time: 10:39:13
(UTC-04:00)

Explorer 7 - Visible Passes

Search period start: 25 October 2021 00:00
Search period end: 04 November 2021 00:00
Orbit: 484 x 676 km, 50.3° (Epoch: 24 October)

Date Brightness Start Highest point End Pass type
(mag) Time Alt. Az. Time Alt. Az. Time Alt. Az.
26 Oct 9.2 20:06:47 10° SSW 20:07:22 13° SSW 20:07:22 13° SSW visible
27 Oct 8.7 20:10:34 10° SW 20:12:00 21° SSW 20:12:00 21° SSW visible
28 Oct 8.7 18:36:40 10° SSE 18:38:37 14° SE 18:40:14 11° ESE visible
28 Oct 8.4 20:14:35 10° SW 20:16:32 29° SW 20:16:32 29° SW visible
29 Oct 8.1 18:39:31 10° S 18:42:32 22° SE 18:44:39 15° E visible
29 Oct 8.4 20:18:48 10° WSW 20:20:56 31° W 20:20:56 31° W visible
30 Oct 7.4 18:43:00 10° SSW 18:46:31 36° SE 18:48:57 18° E visible
30 Oct 8.7 20:23:09 10° W 20:25:14 28° WNW 20:25:14 28° WNW visible
31 Oct 6.8 18:46:49 10° SW 18:50:33 60° SE 18:53:09 20° ENE visible
31 Oct 9.0 20:27:35 10° W 20:29:26 23° WNW 20:29:26 23° WNW visible
01 Nov 6.6 18:50:53 10° WSW 18:54:41 86° NW 18:57:17 21° ENE visible
01 Nov 9.3 20:32:05 10° WNW 20:33:34 19° WNW 20:33:34 19° WNW visible
02 Nov 7.1 18:55:07 10° WSW 18:58:52 58° NNW 19:01:21 21° NE visible
02 Nov 9.5 20:36:34 10° WNW 20:37:37 16° NW 20:37:37 16° NW visible
03 Nov 7.6 18:59:29 10° W 19:03:07 41° NNW 19:05:22 21° NE visible
03 Nov 9.7 20:41:00 10° WNW 20:41:38 13° NW 20:41:38 13° NW visible
